Location: Daerah Kuala Lumpur
(3.1167°N, 101.6833°E)
Time: 09:47:53
(UTC+00:00)

BlueWalker 3 - Pass Details

Date: 20 February 2026
Orbit: 451 x 458 km, 53.2° (Epoch: 6 March)

Event Time Altitude Azimuth Distance (km) Brightness Sun altitude
Exits shadow 21:30:01 19° 72° (ENE) 1,155 4.3 -29.3°
Drops below altitude 10° 21:31:18 10° 59° (ENE) 1,589 5.0 -29.0°
Sets 21:33:34 0° 49° (NE) 2,460 6.0 -28.4°
